sat.trackr.live / text

‹ back to catalog

HBTSS-SV2

NORAD 58955 · 2024-028A

PAYLOAD ACTIVE UNKNOWN

§ Identity

Operator
Country
US
Launch date
2024-02-14
Launch site
AFETR
Launch vehicle
Mass (kg)
RCS (m²)

External: N2YO · Heavens-Above · Gunter

§ Orbital elements

Epoch: 2026-05-25T01:11:44.234592Z

Period
105.07 min
Inclination
39.9891°
Eccentricity
0.0018711
Mean motion
13.70466127 rev/d
Perigee alt
984.1 km
Apogee alt
1,011.7 km
Semi-major
7,376.0 km
B*
7.8469e-5
RAAN
150.1979°
Arg perigee
107.7567°
Mean anomaly
252.5223°
Rev number
11,389

§ Raw data

HBTSS-SV21 58955U 24028A   26145.04981753 -.00000008  00000+0  78469-4 0  99992 58955  39.9891 150.1979 0018711 107.7567 252.5223 13.70466127113896

JSON: /api/v1/satellites/58955 · /tle

For live sub-satellite position, see the globe view (requires WebGL).

§ Visibility from observer

Set your observer location to see the next 7 days of passes ≥ 10°. The values pass through the URL so the page stays shareable.

No JS? Fill the form by hand. The geolocation button needs JavaScript.